(512509) = 2013 YV121 = 2015 FX244 = 2016 RT23

Discovered at Catalina on 2012-09-15 by CSS.

Orbit

Orbit type: Main Belt

Note: WebGL enabled browser required.

epoch2023-02-25.0
epoch JD2460000.5
perihelion date2020-04-24.86904
perihelion JD2458964.36904
argument of perihelion (°)181.05584
ascending node (°)121.28496
inclination (°)8.51576
eccentricity0.1985425
perihelion distance (AU)2.0314766
Tisserand w.r.t. Jupiter3.4
ΔV w.r.t. Earth (km/sec)9.3
semimajor axis (AU)2.5347278
mean anomaly (°)253.05883
mean daily motion (°/day)0.24423440
aphelion distance (AU)3.038
period (years)4.04
P-vector [x]0.53478051
P-vector [y]-0.77417464
P-vector [z]-0.33861988
Q-vector [x]0.83546095
Q-vector [y]0.54445239
Q-vector [z]0.07467665
absolute magnitude16.9
phase slope0.15
uncertainty0
referenceMPO 745323
observations used235
oppositions14
arc length (days)7782
first opposition used2002
last opposition used2023
residual rms (arc-secs)0.88
perturbers coarse indicatorM-v
perturbers precise indicator003Ek
first observation date used2002-01-06.0
last observation date used2023-04-28.0
computer nameMPCLINUX
JD of orbit computation2458142.222404
perihelion JD uncertainty (days)6.0159E-05
argument of perihelion uncertainty (°)3.4587E-05
ascending node uncertainty (°)3.1667E-05
inclination uncertainty (°)4.1044E-06
eccentricity uncertainty 4.2041E-08
perihelion distance uncertainty (AU)1.1215E-07
Minimum Orbit Intersection Distances (in AU)
for orbit epoch: 2460000.5, reference: E2023-HO4
Mercury1.59236
Venus1.30417
Earth1.01504
Mars0.62718
Jupiter2.19337
Saturn6.07088
Uranus15.5073
Neptune27.1592

Observations

244 total observations over interval: 2002 01 06.29315 – 2023 04 28.186018
These data are available for download (format description).

Date (UT) J2000 RA J2000 Dec Magn Location Ref
2002 01 06.29315 07 55 04.59 +19 01 33.3 22.3 V 691 – Steward Observatory, Kitt Peak-Spacewatch MPS 732513
2002 01 06.31491 07 55 03.33 +19 01 39.3 22.3 V 691 – Steward Observatory, Kitt Peak-Spacewatch MPS 732513
2002 01 06.33674 07 55 02.04 +19 01 45.5 22.2 V 691 – Steward Observatory, Kitt Peak-Spacewatch MPS 732513
2005 12 25.34695 07 53 18.50 +18 16 28.0 21.3 V 691 – Steward Observatory, Kitt Peak-Spacewatch MPS 732513
2005 12 25.36427 07 53 17.63 +18 16 32.2 21.1 V 691 – Steward Observatory, Kitt Peak-Spacewatch MPS 732513
2005 12 25.38158 07 53 16.77 +18 16 36.3 21.4 V 691 – Steward Observatory, Kitt Peak-Spacewatch MPS 732513
2008 10 09.22363 01 00 10.44 -08 58 49.3 19.7 V 703 – Catalina Sky Survey MPS 732513
2008 10 09.23192 01 00 09.97 -08 58 51.7 20.3 V 703 – Catalina Sky Survey MPS 732513
2008 10 09.24015 01 00 09.57 -08 58 54.6 19.6 V 703 – Catalina Sky Survey MPS 732513
2008 10 09.24821 01 00 09.10 -08 58 56.3 19.2 V 703 – Catalina Sky Survey MPS 732513
2010 01 06.16558 07 29 45.64 +19 09 37.9 20.9 V 691 – Steward Observatory, Kitt Peak-Spacewatch MPS 732513
2010 01 06.18328 07 29 44.54 +19 09 42.6 21.0 V 691 – Steward Observatory, Kitt Peak-Spacewatch MPS 732513
2010 01 06.20097 07 29 43.50 +19 09 47.1 20.9 V 691 – Steward Observatory, Kitt Peak-Spacewatch MPS 732513
2011 03 13.49748 13 14 31.23 +05 03 42.8 20.4 V G96 – Mt. Lemmon Survey MPS 732513
2011 03 13.50213 13 14 31.09 +05 03 44.7 20.8 V G96 – Mt. Lemmon Survey MPS 732513
2011 03 13.51149 13 14 30.76 +05 03 48.8 20.8 V G96 – Mt. Lemmon Survey MPS 732513
2012 09 15.35027 00 53 42.07 -08 36 22.8 19.2 V 703 – Catalina Sky Survey MPS 732513
2012 09 15.36037 00 53 41.64 -08 36 26.4 18.9 V 703 – Catalina Sky Survey MPS 732513
2012 09 15.37054 00 53 41.10 -08 36 32.4 19.2 V 703 – Catalina Sky Survey MPS 732513
2012 09 15.38058 00 53 40.70 -08 36 37.6 18.9 V 703 – Catalina Sky Survey MPS 732513
2012 10 10.359551 00 33 19.899 -11 28 33.05 19.8 w F51 – Pan-STARRS 1, Haleakala MPS 732513
2012 10 10.360207 00 33 19.865 -11 28 33.20 19.8 w F51 – Pan-STARRS 1, Haleakala MPS 732513
2012 10 10.373462 00 33 19.206 -11 28 36.58 19.6 w F51 – Pan-STARRS 1, Haleakala MPS 732513
2012 10 10.374116 00 33 19.170 -11 28 36.76 19.6 w F51 – Pan-STARRS 1, Haleakala MPS 732513
2012 10 10.387388 00 33 18.506 -11 28 40.15 19.6 w F51 – Pan-STARRS 1, Haleakala MPS 732513
2012 10 10.401955 00 33 17.776 -11 28 43.78 19.4 w F51 – Pan-STARRS 1, Haleakala MPS 732513
2013 12 30.38830 07 23 05.208 +18 42 29.89 21.1 w F51 – Pan-STARRS 1, Haleakala MPS 495397
2013 12 30.40344 07 23 04.322 +18 42 33.46 20.8 w F51 – Pan-STARRS 1, Haleakala MPS 495397
2013 12 30.41864 07 23 03.417 +18 42 37.02 20.9 w F51 – Pan-STARRS 1, Haleakala MPS 495397
2014 01 03.16787 07 19 22.27 +18 57 20.2   691 – Steward Observatory, Kitt Peak-Spacewatch MPS 511221
2014 01 03.18561 07 19 21.22 +18 57 24.4   691 – Steward Observatory, Kitt Peak-Spacewatch MPS 511221
2014 01 03.20335 07 19 20.31 +18 57 25.8   691 – Steward Observatory, Kitt Peak-Spacewatch MPS 511221
2014 01 03.31613 07 19 13.25 +18 57 56.0 20.7 V G96 – Mt. Lemmon Survey MPS 495397
2014 01 03.32239 07 19 12.85 +18 57 57.5 20.8 V G96 – Mt. Lemmon Survey MPS 495397
2014 01 03.32865 07 19 12.51 +18 57 59.3 21.0 V G96 – Mt. Lemmon Survey MPS 495397
2014 01 03.33489 07 19 12.10 +18 58 00.8 20.9 V G96 – Mt. Lemmon Survey MPS 495397
2015 01 21.61154 13 00 34.209 +02 17 17.85 21.6 w F51 – Pan-STARRS 1, Haleakala MPS 732513
2015 01 21.63611 13 00 34.914 +02 17 19.89 21.6 w F51 – Pan-STARRS 1, Haleakala MPS 732513
2015 01 21.64844 13 00 35.283 +02 17 20.73 21.5 w F51 – Pan-STARRS 1, Haleakala MPS 732513
2015 03 23.48582 12 48 58.402 +08 01 39.62 20.2 w F51 – Pan-STARRS 1, Haleakala MPS 595569
2015 03 23.49839 12 48 57.756 +08 01 45.53 20.2 w F51 – Pan-STARRS 1, Haleakala MPS 595569
2015 03 23.51095 12 48 57.115 +08 01 51.28 20.2 w F51 – Pan-STARRS 1, Haleakala MPS 595569
2015 03 23.52353 12 48 56.464 +08 01 57.23 20.4 w F51 – Pan-STARRS 1, Haleakala MPS 595569
2015 03 24.42751 12 48 11.713 +08 08 59.52 20.3 w F51 – Pan-STARRS 1, Haleakala MPS 595569
2015 03 24.44196 12 48 10.962 +08 09 06.28 20.4 w F51 – Pan-STARRS 1, Haleakala MPS 595569
2015 03 24.45645 12 48 10.209 +08 09 13.07 20.4 w F51 – Pan-STARRS 1, Haleakala MPS 595569
2015 03 24.47109 12 48 09.448 +08 09 19.82 20.3 w F51 – Pan-STARRS 1, Haleakala MPS 595569
2015 05 06.25432 12 16 28.553 +11 12 01.52 20.5 i F51 – Pan-STARRS 1, Haleakala MPS 732513
2015 05 06.26550 12 16 28.279 +11 12 01.43 20.7 i F51 – Pan-STARRS 1, Haleakala MPS 732513
2015 05 06.27671 12 16 27.981 +11 12 01.41 20.9 i F51 – Pan-STARRS 1, Haleakala MPS 732513
2015 05 07.25514 12 16 05.790 +11 11 37.51 21.4 w F51 – Pan-STARRS 1, Haleakala MPS 732513
2015 05 07.26799 12 16 05.482 +11 11 36.82 21.0 w F51 – Pan-STARRS 1, Haleakala MPS 732513
2015 05 07.28096 12 16 05.178 +11 11 36.45 20.5 w F51 – Pan-STARRS 1, Haleakala MPS 732513
2015 05 07.29417 12 16 04.869 +11 11 35.97 20.6 w F51 – Pan-STARRS 1, Haleakala MPS 732513
2016 08 03.54902 00 35 23.162 -05 46 18.39 20.0 w F51 – Pan-STARRS 1, Haleakala MPS 732513
2016 08 03.56044 00 35 23.382 -05 46 21.82 20.1 w F51 – Pan-STARRS 1, Haleakala MPS 732513
2016 08 03.57186 00 35 23.597 -05 46 25.32 20.3 w F51 – Pan-STARRS 1, Haleakala MPS 732513
2016 08 03.58331 00 35 23.811 -05 46 28.91 20.3 w F51 – Pan-STARRS 1, Haleakala MPS 732513
2016 08 30.49803 00 33 47.782 -09 08 07.98 19.8 w F51 – Pan-STARRS 1, Haleakala MPS 728005
2016 08 30.51064 00 33 47.398 -09 08 14.96 19.8 w F51 – Pan-STARRS 1, Haleakala MPS 728005
2016 08 30.52322 00 33 47.013 -09 08 21.84 19.8 w F51 – Pan-STARRS 1, Haleakala MPS 728005
2016 09 02.73874 00 32 09.41 -09 38 12.6 19.4 R D29 – Purple Mountain Observatory, XuYi Station MPS 728005
2016 09 02.75288 00 32 08.89 -09 38 20.4 19.6 R D29 – Purple Mountain Observatory, XuYi Station MPS 728005
2016 09 02.76702 00 32 08.39 -09 38 28.0 19.7 R D29 – Purple Mountain Observatory, XuYi Station MPS 728005
2016 09 06.29792 00 30 03.85 -10 11 25.4 19.1 V G96 – Mt. Lemmon Survey MPS 728005
2016 09 06.30452 00 30 03.59 -10 11 29.0 19.2 V G96 – Mt. Lemmon Survey MPS 728005
2016 09 06.31112 00 30 03.33 -10 11 32.9 19.4 V G96 – Mt. Lemmon Survey MPS 728005
2016 09 06.31770 00 30 03.06 -10 11 36.7 19.2 V G96 – Mt. Lemmon Survey MPS 728005
2016 09 08.48162 00 28 38.393 -10 31 40.71 19.3 w F51 – Pan-STARRS 1, Haleakala MPS 728005
2016 09 08.49263 00 28 37.916 -10 31 46.82 19.4 w F51 – Pan-STARRS 1, Haleakala MPS 728005
2016 09 08.50363 00 28 37.441 -10 31 52.90 19.4 w F51 – Pan-STARRS 1, Haleakala MPS 728005
2016 09 08.51462 00 28 36.968 -10 31 58.99 19.5 w F51 – Pan-STARRS 1, Haleakala MPS 728005
2016 09 26.24715 00 14 46.52 -12 57 45.7 19.7 V 703 – Catalina Sky Survey MPS 730795
2016 09 26.25917 00 14 45.99 -12 57 50.7 20.1 V 703 – Catalina Sky Survey MPS 730795
2016 09 26.26518 00 14 45.57 -12 57 53.5 20.0 V 703 – Catalina Sky Survey MPS 730795
2016 10 04.28864 00 08 21.40 -13 43 18.5 19.5 V 703 – Catalina Sky Survey MPS 732513
2016 10 04.30666 00 08 20.56 -13 43 22.9 19.8 V 703 – Catalina Sky Survey MPS 732513
2016 11 21.06982 23 58 23.32 -12 23 29.3 20.7 G G45 – Space Surveillance Telescope, Atom Site MPS 1611161
2016 11 21.10071 23 58 24.04 -12 23 16.8 21.0 G G45 – Space Surveillance Telescope, Atom Site MPS 1611161
2016 11 21.14092 23 58 24.98 -12 22 59.6 21.0 G G45 – Space Surveillance Telescope, Atom Site MPS 1611161
2016 11 21.20410 23 58 26.35 -12 22 34.5 20.9 G G45 – Space Surveillance Telescope, Atom Site MPS 1611161
2016 11 21.23567 23 58 27.15 -12 22 22.1 21.1 G G45 – Space Surveillance Telescope, Atom Site MPS 1611161
2016 12 01.15392 00 03 38.90 -11 08 44.8 20.9 V G96 – Mt. Lemmon Survey MPS 867582
2016 12 01.16012 00 03 39.11 -11 08 42.1 21.1 V G96 – Mt. Lemmon Survey MPS 867582
2016 12 01.16439 00 03 39.33 -11 08 40.0 21.2 V G96 – Mt. Lemmon Survey MPS 867582
2016 12 01.16870 00 03 39.50 -11 08 38.4 21.4 V G96 – Mt. Lemmon Survey MPS 867582
2017 12 12.43369 07 26 01.809 +17 40 23.89 21.3 w F51 – Pan-STARRS 1, Haleakala MPS 846265
2017 12 12.44407 07 26 01.330 +17 40 25.32 21.5 w F51 – Pan-STARRS 1, Haleakala MPS 846265
